W2CS Weather Reports


time (UTC)temp
F
wind
direction
speed
knots
gust
knots
rain 1hr
in
rain 24hr
in
rain mn
in
humidity
%
barometer
mb
20260503023538 48 0 0.0 1.7 0.00 0.00 0.00 93 1010.2
20260503023058 47 0 0.0 0.0 0.00 0.00 0.00 93 1010.3
20260503022535 48 0 0.0 0.0 0.00 0.00 0.00 93 1010.3
20260503022038 48 0 0.0 0.0 0.00 0.00 0.00 93 1010.6
20260503021549 48 0 0.0 0.0 0.00 0.00 0.00 93 1010.5
20260503021039 48 0 0.0 0.0 0.00 0.00 0.00 93 1010.5
20260503020539 48 0 0.0 0.0 0.00 0.00 0.00 93 1010.6
20260503020047 48 0 0.0 0.0 0.00 0.00 0.00 93 1010.6
20260503015540 48 0 0.0 0.0 0.00 0.00 0.00 93 1010.6
20260503015039 48 0 0.0 0.0 0.00 0.00 0.00 93 1010.5
20260503014554 48 0 0.0 0.9 0.00 0.00 0.00 93 1010.8
20260503014039 48 0 0.0 0.9 0.00 0.00 0.00 93 1010.8
20260503013541 48 0 0.0 0.9 0.00 0.00 0.00 93 1010.9
20260503013057 48 0 0.0 0.0 0.00 0.00 0.00 93 1011.0
20260503012543 48 0 0.0 0.0 0.00 0.00 0.00 93 1010.9
20260503012039 48 0 0.0 0.0 0.00 0.00 0.00 93 1010.8
20260503011553 48 0 0.0 0.0 0.00 0.00 0.00 93 1010.7
20260503011038 48 0 0.0 0.0 0.00 0.00 0.00 93 1010.6
20260503010538 48 0 0.0 0.0 0.00 0.00 0.00 93 1010.8
20260503010050 48 0 0.0 0.0 0.00 0.00 0.00 93 1010.8
20260503005536 48 0 0.0 0.9 0.00 0.00 0.00 93 1010.7
20260503005043 48 0 0.0 0.9 0.00 0.00 0.00 92 1010.5
20260503004555 48 0 0.0 0.9 0.00 0.00 0.00 92 1010.6
20260503004039 48 0 0.0 0.0 0.00 0.00 0.00 92 1010.7
20260503003539 48 0 0.0 0.0 0.00 0.00 0.00 92 1010.7
20260503003108 48 0 0.0 0.0 0.00 0.00 0.00 92 1010.7
20260503002541 48 0 0.0 0.9 0.00 0.00 0.00 92 1010.6
20260503002039 48 0 0.0 1.7 0.00 0.00 0.00 92 1010.5
20260503001550 48 0 0.0 1.7 0.00 0.00 0.00 92 1010.6
20260503001038 49 258 0.0 0.0 0.00 0.00 0.00 92 1010.9
20260503000535 49 0 0.0 0.0 0.00 0.00 0.00 92 1011.0
20260503000051 49 0 0.0 0.9 0.00 0.00 0.00 92 1010.9
20260502235538 49 0 0.0 0.9 0.00 0.00 0.00 92 1010.5
20260502235038 49 0 0.0 0.9 0.00 0.00 0.00 92 1010.4
20260502234602 49 0 0.0 0.0 0.00 0.00 0.00 91 1010.5
20260502234040 49 0 0.0 0.0 0.00 0.00 0.00 91 1010.7
20260502233539 49 0 0.0 1.7 0.00 0.00 0.00 91 1010.6
20260502233047 49 0 0.0 1.7 0.00 0.00 0.00 91 1010.7
20260502232539 49 258 0.0 1.7 0.00 0.00 0.00 91 1010.6
20260502232039 49 0 0.0 0.0 0.00 0.00 0.00 91 1011.0
20260502231554 49 0 0.0 0.0 0.00 0.00 0.00 91 1010.7
20260502231036 50 0 0.0 0.0 0.00 0.00 0.00 91 1010.6
20260502230536 50 0 0.0 0.0 0.00 0.00 0.00 90 1010.8
20260502230055 50 0 0.0 0.0 0.00 0.00 0.00 90 1010.7
20260502225538 50 0 0.0 1.7 0.00 0.00 0.00 90 1010.8
20260502225039 50 0 0.0 1.7 0.00 0.00 0.00 90 1010.7
20260502224552 50 0 0.0 1.7 0.00 0.00 0.00 90 1010.6
20260502224040 50 0 0.0 1.7 0.00 0.00 0.00 90 1010.6
20260502223539 50 0 0.0 1.7 0.00 0.00 0.00 89 1010.5
20260502223059 50 0 0.0 1.7 0.00 0.00 0.00 89 1010.5
20260502222539 50 0 0.0 1.7 0.00 0.00 0.00 89 1010.6
20260502222038 51 0 0.0 1.7 0.00 0.00 0.00 88 1010.5
20260502221546 51 0 0.0 1.7 0.00 0.00 0.00 88 1010.6
20260502221038 51 0 0.0 1.7 0.00 0.00 0.00 88 1010.5
20260502220539 51 258 0.0 0.9 0.00 0.00 0.00 88 1010.5
20260502220056 51 0 0.0 0.9 0.00 0.00 0.00 88 1010.5
20260502215538 51 0 0.0 0.9 0.00 0.00 0.00 87 1010.5
20260502215038 51 0 0.0 0.9 0.00 0.00 0.00 87 1010.5
20260502214607 51 0 0.0 0.9 0.00 0.00 0.00 87 1010.6
20260502214035 51 0 0.0 0.9 0.00 0.00 0.00 87 1010.5
20260502213541 52 0 0.0 0.0 0.00 0.00 0.00 87 1010.6
20260502213104 52 0 0.0 0.9 0.00 0.00 0.00 87 1010.7
20260502212539 52 0 0.0 0.9 0.00 0.00 0.00 87 1010.7
20260502212039 52 0 0.0 0.0 0.00 0.00 0.00 86 1010.6
20260502211554 52 0 0.0 0.0 0.00 0.00 0.00 87 1010.6
20260502211038 52 0 0.0 0.0 0.00 0.00 0.00 86 1010.7
20260502210535 52 0 0.0 0.9 0.00 0.00 0.00 87 1010.8
20260502210054 52 0 0.0 0.9 0.00 0.00 0.00 87 1010.8
20260502205538 52 0 0.0 0.9 0.00 0.00 0.00 87 1010.8
20260502205037 52 0 0.0 0.9 0.00 0.00 0.00 86 1010.8
20260502204548 52 0 0.0 0.9 0.00 0.00 0.00 87 1010.9
20260502204040 52 0 0.0 0.0 0.00 0.00 0.00 87 1010.8
20260502203539 52 0 0.0 0.0 0.00 0.00 0.00 86 1010.9
20260502203111 52 0 0.0 0.0 0.00 0.00 0.00 87 1010.9
20260502202539 52 0 0.0 1.7 0.00 0.00 0.00 86 1010.9
20260502202040 52 0 0.0 1.7 0.00 0.00 0.00 86 1011.0
20260502201548 53 258 0.0 0.9 0.00 0.00 0.00 86 1010.9
20260502201039 53 0 0.0 0.9 0.00 0.00 0.00 86 1011.0
20260502200539 53 0 0.0 0.9 0.00 0.00 0.00 86 1011.0
20260502200100 53 0 0.0 1.7 0.00 0.00 0.00 86 1011.1
20260502195539 53 0 0.0 1.7 0.00 0.00 0.00 85 1011.1
20260502195038 53 0 0.0 1.7 0.00 0.00 0.00 86 1011.2
20260502194551 53 0 0.0 1.7 0.00 0.00 0.00 86 1011.3
20260502194038 53 0 0.0 1.7 0.00 0.00 0.00 85 1011.3
20260502193536 53 0 0.0 1.7 0.00 0.00 0.00 85 1011.3
20260502193048 53 0 0.0 1.7 0.00 0.00 0.00 85 1011.4
20260502192538 53 0 0.0 0.9 0.00 0.00 0.00 85 1011.5
20260502192036 53 0 0.0 1.7 0.00 0.00 0.00 85 1011.6
20260502191549 54 298 0.0 1.7 0.00 0.00 0.00 85 1011.5
20260502191038 54 0 0.0 0.9 0.00 0.00 0.00 84 1011.6
20260502190541 54 0 0.0 0.9 0.00 0.00 0.00 84 1011.7
20260502190051 54 0 0.0 0.9 0.00 0.00 0.00 83 1011.7
20260502185538 55 0 0.0 0.9 0.00 0.00 0.00 83 1011.7
20260502185041 55 0 0.0 1.7 0.00 0.00 0.00 83 1011.7
20260502184550 55 0 0.0 1.7 0.00 0.00 0.00 83 1011.7
20260502184038 55 0 0.0 1.7 0.00 0.00 0.00 83 1011.7
20260502183539 56 303 0.0 1.7 0.00 0.00 0.00 84 1011.8
20260502183055 55 0 0.0 1.7 0.00 0.00 0.00 85 1011.9
20260502182538 55 0 0.0 1.7 0.00 0.00 0.00 83 1011.8
20260502182040 56 0 0.0 1.7 0.00 0.00 0.00 84 1011.9
20260502181550 56 0 0.0 1.7 0.00 0.00 0.00 83 1011.9
20260502181039 56 0 0.0 0.9 0.00 0.00 0.00 83 1012.0
20260502180538 56 0 0.0 1.7 0.00 0.00 0.00 82 1012.2
20260502164038 56 185 0.0 0.9 0.00 0.00 0.00 81 1012.0
20260502163538 56 0 0.0 2.6 0.00 0.00 0.00 83 1012.0
20260502163106 55 0 0.0 2.6 0.00 0.00 0.00 82 1012.2
20260502162536 55 185 0.0 1.7 0.00 0.00 0.00 82 1012.0
20260502162040 55 0 0.0 1.7 0.00 0.00 0.00 81 1012.1
20260502161618 56 0 0.0 2.6 0.00 0.00 0.00 81 1012.3
20260502161038 56 0 0.9 2.6 0.00 0.00 0.00 79 1012.2
20260502160535 56 111 0.0 1.7 0.00 0.00 0.00 81 1012.3
20260502152037 58 219 0.9 2.6 0.00 0.00 0.00 82 1012.6
20260502151555 57 235 0.9 2.6 0.00 0.00 0.00 84 1012.5
20260502151038 55 0 0.0 1.7 0.00 0.00 0.00 81 1012.5
20260502150535 56 235 0.0 1.7 0.00 0.00 0.00 80 1012.5
20260502130537 54 0 0.0 1.7 0.00 0.00 0.00 83 1012.9
20260502123535 53 0 0.9 3.5 0.00 0.00 0.00 84 1013.0
20260502123110 53 20 0.9 3.5 0.00 0.00 0.00 83 1012.9
20260502122537 53 0 0.0 3.5 0.00 0.00 0.00 84 1012.9
20260502122043 53 6 0.9 3.5 0.00 0.00 0.00 84 1012.8
20260502121556 53 3 0.0 2.6 0.00 0.00 0.00 85 1012.9
20260502121040 53 0 0.0 1.7 0.00 0.00 0.00 86 1013.0
20260502120540 52 0 0.0 1.7 0.00 0.00 0.00 87 1012.9
20260502120108 52 0 0.0 0.9 0.00 0.00 0.00 87 1012.8
20260502115539 51 0 0.0 0.9 0.00 0.00 0.00 89 1012.7
20260502115043 50 0 0.0 0.9 0.00 0.00 0.00 88 1012.7
20260502114548 50 0 0.0 0.9 0.00 0.00 0.00 89 1012.7
20260502114042 49 0 0.0 0.9 0.00 0.00 0.00 90 1012.7
20260502113538 49 0 0.0 0.0 0.00 0.00 0.00 90 1012.7
20260502113051 49 0 0.0 0.0 0.00 0.00 0.00 91 1012.6
20260502112538 49 0 0.0 1.7 0.00 0.00 0.00 92 1012.6
20260502112039 48 0 0.0 1.7 0.00 0.00 0.00 92 1012.6
20260502111548 48 0 0.0 1.7 0.00 0.00 0.00 93 1012.5
20260502111039 47 0 0.0 0.0 0.00 0.00 0.00 93 1012.5
20260502110539 46 0 0.0 0.0 0.00 0.00 0.00 93 1012.5
20260502110054 46 0 0.0 0.0 0.00 0.00 0.00 93 1012.7
20260502105539 46 0 0.0 0.0 0.00 0.00 0.00 93 1012.6
20260502105038 46 0 0.0 0.9 0.00 0.00 0.00 93 1012.6
20260502104552 45 0 0.0 0.9 0.00 0.00 0.00 93 1012.5
20260502104039 45 0 0.0 1.7 0.00 0.00 0.00 93 1012.3
20260502103535 44 0 0.0 1.7 0.00 0.00 0.00 93 1012.2
20260502103046 44 0 0.0 1.7 0.00 0.00 0.00 93 1012.2
20260502102538 43 0 0.0 1.7 0.00 0.00 0.00 93 1012.1
20260502102040 43 0 0.0 1.7 0.00 0.00 0.00 93 1012.1
20260502101547 43 201 0.0 1.7 0.00 0.00 0.00 93 1012.3
20260502101039 42 201 0.0 1.7 0.00 0.00 0.00 93 1012.2
20260502100539 42 0 0.0 1.7 0.00 0.00 0.00 93 1012.1
20260502091039 40 0 0.0 0.0 0.00 0.00 0.00 91 1012.3
20260502090539 40 0 0.0 1.7 0.00 0.00 0.00 91 1012.4
20260502071037 42 0 0.0 1.7 0.00 0.00 0.00 89 1012.0
20260502070538 42 201 0.9 1.7 0.00 0.00 0.00 89 1011.9
20260502070107 42 0 0.0 1.7 0.00 0.00 0.00 89 1012.0
20260502065538 42 201 0.0 1.7 0.00 0.00 0.00 89 1012.1
20260502065037 43 0 0.0 1.7 0.00 0.00 0.00 89 1012.0
20260502064553 43 201 0.0 1.7 0.00 0.00 0.00 89 1012.1
20260502064037 43 0 0.0 0.9 0.00 0.00 0.00 89 1012.1
20260502063539 43 0 0.0 1.7 0.00 0.00 0.00 88 1012.1
20260502063053 43 0 0.0 1.7 0.00 0.00 0.00 88 1012.2
20260502062538 43 201 0.0 1.7 0.00 0.00 0.00 88 1012.2
20260502062038 43 0 0.0 0.0 0.00 0.00 0.00 88 1012.2
20260502061547 43 0 0.0 0.9 0.00 0.00 0.00 88 1012.4
20260502061037 43 0 0.0 0.9 0.00 0.00 0.00 88 1012.2
20260502060539 43 0 0.0 0.0 0.00 0.00 0.00 87 1012.2
20260502060054 43 0 0.0 1.7 0.00 0.00 0.00 87 1012.3
20260502055538 44 0 0.0 1.7 0.00 0.00 0.00 87 1012.3
20260502055038 44 0 0.0 0.9 0.00 0.00 0.00 87 1012.3
20260502054548 44 0 0.0 1.7 0.00 0.00 0.00 87 1012.3
20260502054037 44 0 0.0 1.7 0.00 0.00 0.00 87 1012.5
20260502053537 44 0 0.0 1.7 0.00 0.00 0.00 87 1012.5
20260502053053 44 201 0.0 1.7 0.00 0.00 0.00 87 1012.6
20260502052537 44 0 0.0 1.7 0.00 0.00 0.00 87 1012.5
20260502052042 44 0 0.0 0.9 0.00 0.00 0.00 87 1012.6
20260502051602 44 0 0.0 0.9 0.00 0.00 0.00 87 1012.5
20260502051039 44 0 0.0 0.9 0.00 0.00 0.00 86 1012.6
20260502050539 44 0 0.0 0.9 0.00 0.00 0.00 86 1012.6
20260502050056 44 0 0.0 0.0 0.00 0.00 0.00 86 1012.4
20260502045541 44 0 0.0 1.7 0.00 0.00 0.00 86 1012.5
20260502045036 44 0 0.0 1.7 0.00 0.00 0.00 86 1012.5
20260502044607 44 0 0.0 1.7 0.00 0.00 0.00 86 1012.5
20260502044037 44 0 0.0 1.7 0.00 0.00 0.00 86 1012.5
20260502043541 45 0 0.0 0.0 0.00 0.00 0.00 86 1012.6
20260502043053 45 0 0.0 0.0 0.00 0.00 0.00 86 1012.6
20260502042538 45 0 0.0 0.0 0.00 0.00 0.00 86 1012.5
20260502042040 45 0 0.0 0.0 0.00 0.00 0.00 86 1012.5
20260502041552 45 0 0.0 0.0 0.00 0.00 0.00 86 1012.6
20260502041037 45 0 0.0 0.0 0.00 0.00 0.00 85 1012.6
20260502040537 45 0 0.0 0.0 0.00 0.00 0.00 85 1012.5
20260502035536 46 0 0.0 0.0 0.00 0.00 0.00 85 1012.7
20260502035036 46 0 0.0 0.9 0.00 0.00 0.00 85 1012.6
20260502034548 46 0 0.0 0.9 0.00 0.00 0.00 85 1012.6
20260502034039 46 0 0.0 0.9 0.00 0.00 0.00 84 1012.6
20260502033537 46 0 0.0 0.9 0.00 0.00 0.00 84 1012.6
20260502033051 46 0 0.0 1.7 0.00 0.00 0.00 85 1012.6
20260502032537 46 0 0.0 1.7 0.00 0.00 0.00 85 1012.6
20260502032038 46 0 0.0 0.0 0.00 0.00 0.00 86 1012.5
20260502031549 46 0 0.0 0.0 0.00 0.00 0.00 85 1012.4
20260502031041 45 0 0.0 0.9 0.00 0.00 0.00 86 1012.5
20260502030537 45 0 0.0 1.7 0.00 0.00 0.00 85 1012.4
20260502030051 45 0 0.0 1.7 0.00 0.00 0.00 85 1012.5
20260502025537 45 0 0.0 0.9 0.00 0.00 0.00 85 1012.3
20260502025038 45 0 0.0 1.7 0.00 0.00 0.00 84 1012.2
20260502024547 46 0 0.0 1.7 0.00 0.00 0.00 84 1012.1
20260502024040 46 0 0.0 3.5 0.00 0.00 0.00 84 1012.0